Weather in Kharanor

Russia / Zabaykalsky Krai     50°06′55″N   116°40′15″E
temp.,
°C
wind,
m/s
gust,
m/s
humid.,
%
clouds,
%
prec.,
mm/h
press.,
hPa
HPBL,
m
15 april, thu
thu1500:00+2e2231100 0.0 100824
03:00+2ese3433100 0.0 100779
06:00+1ese3338100 0.0 100772
09:00+3se2336100 0.2 10071063
12:00+3ene2344100 0.0 10061484
15:00+4ne3440100 0.1 10061722
18:00+4ne4546100 0.4 10061388
21:00+2nne4851100 0.5 1009458
16 april, fri
fri1600:00+1n4840100 0.0 1009179
03:000nnw3534100 0.0 101177
06:00−2nnw4839100 0.0 1012143
09:00+3n710275 0.0 10131320
12:00+6nne8101544 0.0 10132972
15:00+8n891191 0.0 10123508
18:00+7n6713100 0.0 10133356
21:00+4nw49233 0.0 1016191
17 april, sat
sat1700:00+2nw33230 0.0 101626
03:000w34260 0.0 101645
06:00−1wsw34320 0.0 101649
09:00+4wsw57314 0.0 1015388
12:00+10wsw68280 0.0 10121195
15:00+14w78215 0.0 10081677
18:00+15w68225 0.0 10061984
21:00+10ssw33323 0.0 100728
18 april, sun
sun1800:00+7ssw33384 0.0 100734
03:00+5s22430 0.0 100710
06:00+4e11469 0.0 100710
09:00+9ene22345 0.0 1007238
12:00+14ese112431 0.0 1005980
15:00+16w121913 0.0 10042575
18:00+17sw12175 0.0 10032878
21:00+12wnw452418 0.0 100568
19 april, mon
mon1900:00+10se222699 0.0 100513
03:00+10nnw2329100 0.0 100758
06:00+9nw5104795 0.0 1009297
09:00+9nnw911420 0.0 1012761
12:00+12nnw89200 0.0 10131316
15:00+14nnw88144 0.0 10131783
18:00+13nnw78140 0.0 10152127
21:00+9n33205 0.0 101824